Terug naar catalogus

THOR ABLESTAR DEB

ActiefLEO
NORAD 134·DEBRIS·🇺🇸 United States

Gelanceerd Jun 29, 1961 vanaf Cape Canaveral Space Force Station

Loading…

Volgende Passages (komende 24 uur)

TLE

VersSource: Space-Track

Epoch: Sep 14, 2026, 05:27 UTC

1 00134U 61015U   26257.22750629  .00000048  00000-0  86633-4 0  9998
2 00134  66.8800 187.5184 0076375 130.6511 230.1246 13.97786336318145

Volg THOR ABLESTAR DEB in realtime met AllMySat

Download on the App Store